Location: Unspecified
(55.7024°N, 37.6611°E)
Time: 23:52:44
(UTC+03:00)

Vanguard 1 Rocket - All Passes

Search period start: 17 June 2025 00:00
Search period end: 27 June 2025 00:00
Orbit: 651 x 4216 km, 34.3° (Epoch: 16 June)

Date Brightness Start Highest point End Pass type
(mag) Time Alt. Az. Time Alt. Az. Time Alt. Az.
17 Jun - 05:39:22 10° SSE 05:41:38 11° SSE 05:44:17 10° SE daylight
17 Jun - 07:58:55 10° SW 08:05:08 22° S 08:14:29 10° SE daylight
17 Jun - 10:22:39 10° SW 10:30:12 19° SSW 10:40:53 10° SSE daylight
18 Jun - 06:48:26 10° SSW 06:53:09 17° SSE 06:59:40 10° SE daylight
18 Jun - 09:10:46 10° SW 09:17:28 20° S 09:27:19 10° SSE daylight
18 Jun - 11:38:11 10° SW 11:42:57 12° SSW 11:48:35 10° S daylight
19 Jun - 05:39:12 10° S 05:41:31 12° SSE 05:44:14 10° SE daylight
19 Jun - 07:59:31 10° SW 08:05:07 19° S 08:13:13 10° SE daylight
19 Jun - 10:24:10 10° SW 10:30:05 15° SSW 10:37:51 10° S daylight
20 Jun - 06:48:53 10° SSW 06:53:08 16° SSE 06:58:51 10° SE daylight
20 Jun - 09:11:50 10° SW 09:17:28 17° S 09:25:11 10° SSE daylight
21 Jun - 05:39:21 10° S 05:41:28 12° SSE 05:43:55 10° SE daylight
21 Jun - 08:00:22 10° SW 08:05:10 17° S 08:11:42 10° SSE daylight
21 Jun - 10:27:14 10° SW 10:30:01 11° SSW 10:33:09 10° S daylight
22 Jun - 06:49:33 10° SSW 06:53:11 15° S 06:57:51 10° SE daylight
22 Jun - 09:13:34 10° SW 09:17:30 13° SSW 09:22:21 10° S daylight
23 Jun - 05:39:52 10° S 05:41:29 11° SSE 05:43:17 10° SSE daylight
23 Jun - 08:01:38 10° SSW 08:05:14 13° S 08:09:46 10° SSE daylight
24 Jun - 06:50:36 10° SSW 06:53:17 12° S 06:56:29 10° SSE daylight
25 Jun - 08:05:03 10° SSW 08:05:21 10° S 08:05:40 10° S daylight
